User: anonymous   Login
Location: Apollinopolis Magna
(24.9792°N, 32.8772°E)
Time: 15:36:41
(UTC+00:00)
Language:

Nadezhda 3 Rocket - Orbit

View from above orbital plane
View from above orbital plane
View from above satellite
View from above satellite

Ground track
Ground track

The orbit data is extracted from the following two-line orbital elements,

1 21153U 91019B   21125.40168833  .00000044  00000-0  29063-4 0  9998
2 21153  82.9277 227.4870 0030126 146.0974 281.6750 13.75988685513426
Epoch (UTC): 05 May 2021 09:38:25
Eccentricity: 0.0030126
inclination: 82.9277°
perigee height: 956 km
apogee height: 1000 km
right ascension of ascending node: 227.4870°
argument of perigee: 146.0974°
revolutions per day: 13.75988685
mean anomaly at epoch: 281.6750°
orbit number at epoch: 51342

The dashed part of the orbit path shows where the satellite is in the earth's shadow,  

DLR